• Join FlightAware (Why Join?)
  • Login
  • US Flag GB Flag 
09:58 EDT


 

Airport Tracker/Info


-or-


 

Live Flight TrackerFlight Track Log ✈ EJA583 ✈ 19-Sep-2013 ✈ KHOU - KSAT

Flight Track Log - Related Links

Times and Time Zones

All times are in EDT time to prevent confusion due to time zone crossing. See the EJA583 flight status page for this flight to view local times or setup timezone preferences in your user account.

Time Position Orientation Groundspeed Altitude Reporting Facility
EDT Latitude Longitude Course Direction KTS MPH feet Rate Location/Type
11:17 29.6525 -95.2703 303° West 163 188 600  Level Houston Center
11:18 29.6928 -95.3422 303° West 224 258 5,200 2,700 Climbing Houston Center
11:18 29.6906 -95.3300 102° East 211 243 4,600 3,000 Descending Houston Center
11:19 29.7072 -95.4178 282° West 231 266 8,400 3,180 Climbing Houston Center
11:20 29.7144 -95.4981 276° West 246 283 11,200 2,400 Climbing Houston Center
11:22 29.7225 -95.5817 276° West 258 297 13,400 1,320 Climbing Houston Center
11:23 29.7322 -95.6839 276° West 307 353 14,000 240 Climbing Houston Center
11:24 29.7439 -95.8044 276° West 374 430 14,000  Level Houston Center
11:25 29.7547 -95.9228 276° West 375 432 14,000 -60 Level Houston Center
11:26 29.7664 -96.0458 276° West 376 433 13,900 -60 Descending Houston Center
11:27 29.7803 -96.1886 276° West 377 434 13,900  Level Houston Center
11:28 29.7886 -96.3083 275° West 377 434 13,900  Level Houston Center
11:29 29.7975 -96.4275 275° West 376 433 13,900  Level Houston Center
11:30 29.8061 -96.5450 275° West 372 428 13,900  Level Houston Center
11:31 29.8153 -96.6636 275° West 374 430 13,900  Level Houston Center
11:32 29.8253 -96.8083 275° West 381 438 13,900  Level Houston Center
11:33 29.8342 -96.9250 275° West 373 429 13,900  Level Houston Center
11:34 29.8428 -97.0442 275° West 375 432 13,900  Level Houston Center
11:35 29.8514 -97.1647 275° West 379 436 13,900  Level Houston Center
11:36 29.8597 -97.2836 275° West 376 433 13,900  Level Houston Center
11:37 29.8692 -97.4272 274° West 376 433 13,900  Level Houston Center
11:38 29.8778 -97.5550 274° West 375 432 14,000 60 Climbing Houston Center
11:38 29.8808 -97.5914 276° West 377 434 14,000  Level Houston Center
11:39 29.8858 -97.6756 274° West 377 434 14,000  Level Houston Center
11:40 29.8903 -97.7300 275° West 378 435 14,000 -120 Level Houston Center
11:40 29.8933 -97.8042 273° West 375 432 13,900 -720 Descending Houston Center
11:41 29.8956 -97.8500 273° West 377 434 13,300 -900 Descending Houston Center
11:41 29.8750 -97.9150 250° West 351 404 13,000 -420 Descending Houston Center
11:42 29.8592 -97.9533 245° Southwest 341 392 12,900 -1,380 Descending Houston Center
11:42 29.8300 -98.0206 243° Southwest 342 394 11,600 -1,980 Descending Houston Center
11:42 29.8214 -98.0425 246° West 336 387 11,100 -2,040 Descending Houston Center
11:43 29.7842 -98.1053 236° Southwest 312 359 9,500 -2,100 Descending Houston Center
11:44 29.7708 -98.1283 236° Southwest 288 331 8,800 -2,160 Descending Houston Center
11:44 29.7339 -98.1806 231° Southwest 275 316 7,300 -2,100 Descending Houston Center
11:45 29.7253 -98.2036 247° West 263 303 6,700 -1,260 Descending Houston Center
11:45 29.7078 -98.2608 251° West 269 310 6,000 -720 Descending Houston Center
11:46 29.7017 -98.2861 254° West 268 308 6,000  Level Houston Center
11:46 29.6817 -98.3508 250° West 277 319 6,000  Level Houston Center
11:47 29.6800 -98.3706 264° West 277 319 6,000  Level Houston Center
11:47 29.6717 -98.4364 262° West 272 313 6,000  Level Houston Center
11:48 29.6744 -98.4697 275° West 274 315 6,000 -780 Level Houston Center
11:48 29.7000 -98.5194 301° West 256 295 5,200 -1,620 Descending Houston Center
11:49 29.7111 -98.5867 281° West 241 277 3,200 -1,860 Descending Houston Center
11:50 29.7031 -98.5986 232° Southwest 214 246 3,000 -240 Descending Houston Center
11:50 29.6625 -98.6131 197° South 181 208 3,000 -120 Level Houston Center
11:52 29.6219 -98.5875 151° Southeast 175 201 2,800 -420 Descending Houston Center
11:53 29.5936 -98.5514 132° Southeast 124 143 2,200 -660 Descending Houston Center
11:54 29.5719 -98.5203 129° Southeast 132 152 1,500 -720 Descending Houston Center
11:54 29.5697 -98.5183 143° Southeast 136 157 1,500 -540 Level Houston Center
11:55 29.5475 -98.4850 127° Southeast 132 152 1,000 -540 Descending Houston Center